Regional Weather Roundup
Issued by NWS Albany, NY

Home | Current Version | Previous Version | Text Only | Print | Product List | Glossary On
Versions: 1 2 3 4 5 6 7 8 9 10 11 12 13 14 15 16 17 18 19 20 21 22 23 24 25 26 27
000
ASUS41 KALY 172210
RWRALY

NEW YORK STATE HOURLY WEATHER ROUNDUP
NATIONAL WEATHER SERVICE ALBANY NY
600 PM EDT THU APR 17 2014

NOTE: "FAIR" INDICATES FEW OR NO CLOUDS BELOW 12,000 FEET WITH NO
SIGNIFICANT WEATHER AND/OR NO OBSTRUCTIONS TO VISIBILITY.

NYZ032-033-038>043-046>054-057>066-NYZ062>081-172300-
EAST


CITY           SKY/WX    TMP DP  RH WIND       PRES   REMARKS
ALBANY         PTSUNNY   52  17  25 SE5       30.60F
GLENS FALLS    MOSUNNY   48  18  30 CALM      30.60F
POUGHKEEPSIE   SUNNY     51  21  30 W8        30.60F
NEWBURGH       SUNNY     48  21  34 S12       30.62F
MONTGOMERY     SUNNY     50  20  30 S12       30.60S
WHITE PLAINS   SUNNY     45  21  38 E7        30.63F
ISLIP          PTSUNNY   44  29  55 SE15      30.65S
NEW YORK CITY  PTSUNNY   46  27  47 E9        30.65F
CENTRAL PARK   PTSUNNY   46  27  47 VRB3      30.68F
$$

NYZ005>009-017-018-044>046-055-056-172300-
CENTRAL


CITY           SKY/WX    TMP DP  RH WIND       PRES   REMARKS
FULTON         SUNNY     53  23  31 SE6       30.47F
SYRACUSE       PTSUNNY   55  19  24 SE14G21   30.48F
ROME           PTSUNNY   49  22  34 SE18      30.53F
ELMIRA         SUNNY     54  19  25 S13G20    30.46F
BINGHAMTON     PTSUNNY   51  19  28 S9G20     30.48F
MONTICELLO     MOSUNNY   46  19  34 SE13      30.57S
$$

NYZ026>034-041>043-172300-
NORTH


CITY           SKY/WX    TMP DP  RH WIND       PRES   REMARKS
WATERTOWN      SUNNY     54  19  25 SE12      30.49F
FORT DRUM      NOT AVBL
MASSENA        SUNNY     48  24  39 E13       30.54F
SARANAC LAKE   MOSUNNY   45   7  21 S12       30.49F
PLATTSBURGH    MOSUNNY   45  21  38 SE13      30.61F
$$

NYZ001>004-010>016-019>021-172300-
WEST


CITY           SKY/WX    TMP DP  RH WIND       PRES   REMARKS
NIAGARA FALLS  PTSUNNY   59  25  27 SW10      30.35F
BUFFALO        PTSUNNY   60  25  26 SE8       30.36F
DUNKIRK        SUNNY     61  25  25 S10G23    30.34F
JAMESTOWN      SUNNY     55  25  30 S14       30.35F
WELLSVILLE     SUNNY     52  18  26 S14G21    30.41F
ROCHESTER      MOSUNNY   57  23  26 SE13G21   30.41F
PENN YAN       SUNNY     55  22  27 S12       30.44F
$$

             KEY
       WCI = WIND CHILL INDEX
       VSB = VISIBILITY
       HX  = HEAT INDEX
$$



USA.gov is the U.S. government's official web portal to all federal, state and local government web resources and services.